Location: Eastlake (historical)
(39.0077°N, 122.6678°W)
Time: 10:07:57
(UTC+00:00)

Cosmos 1943 - Pass Details

Date: 25 November 2020
Orbit: 832 x 851 km, 71.0° (Epoch: 25 January)

Event Time Altitude Azimuth Distance (km) Brightness Sun altitude
Exits shadow 13:01:19 17° 349° (N) 2,054 5.0 -23.7°
Maximum altitude 13:05:44 57° 64° (ENE) 1,001 3.8 -22.8°
Drops below altitude 10° 13:11:19 10° 143° (SE) 2,469 6.2 -21.8°
Sets 13:13:48 0° 147° (SSE) 3,399 7.0 -21.3°
